TAP39PT LEBL-LPPT

Flight info

Callsign TAP39PT
Flight time 1h 33m
Altitude 35000
Route SENIA DCT DORMI DCT CRETA DCT NEXAS DCT DISVU DCT ADUXO N975 PALIO DCT AKOKI DCT GOTOR DCT TLD DCT NATPA DCT MELON DCT CCS DCT ELVAR DCT UPULO
Aircraft A321/M-SDE3FGHIRWY/LB1

Departure

Time 2026-05-04 15:23
Airport Josep Tarradellas Barcelona-El Prat Airport (LEBL)

Arrival

Time 2026-05-04 16:57
Airport Lisbon Humberto Delgado Airport (LPPT)
Time Latitude Longitude Altitude Speed Heading
2026-05-04 14:48 41.28978 2.07901 21 ft 0 kts 336°
2026-05-04 15:11 41.28958 2.07913 20 ft 4 kts 336°
2026-05-04 15:11 41.28938 2.07925 20 ft 3 kts 334°
2026-05-04 15:11 41.28918 2.07944 21 ft 4 kts 293°
2026-05-04 15:11 41.28917 2.07974 23 ft 3 kts 245°
2026-05-04 15:12 41.28928 2.08006 21 ft 4 kts 245°
2026-05-04 15:12 41.28938 2.08035 21 ft 1 kts 245°
2026-05-04 15:14 41.28937 2.08032 22 ft 1 kts 245°
2026-05-04 15:14 41.28907 2.07996 21 ft 9 kts 190°
2026-05-04 15:15 41.28841 2.08032 18 ft 12 kts 156°
2026-05-04 15:15 41.28754 2.08084 16 ft 14 kts 156°
2026-05-04 15:15 41.28740 2.08142 15 ft 8 kts 66°
2026-05-04 15:16 41.28710 2.08251 17 ft 7 kts 121°
2026-05-04 15:16 41.28729 2.08341 16 ft 14 kts 64°
2026-05-04 15:16 41.28812 2.08583 17 ft 17 kts 65°
2026-05-04 15:17 41.28857 2.08715 17 ft 15 kts 65°
2026-05-04 15:17 41.28946 2.08975 19 ft 8 kts 65°
2026-05-04 15:17 41.28952 2.08994 16 ft 1 kts 65°
2026-05-04 15:18 41.28956 2.09003 16 ft 2 kts 65°
2026-05-04 15:18 41.28962 2.09021 16 ft 2 kts 65°
2026-05-04 15:18 41.28965 2.09031 18 ft 0 kts 65°
2026-05-04 15:19 41.28968 2.09041 17 ft 3 kts 65°
2026-05-04 15:19 41.28986 2.09094 17 ft 9 kts 65°
2026-05-04 15:19 41.29072 2.09343 17 ft 19 kts 65°
2026-05-04 15:20 41.29124 2.09492 18 ft 17 kts 65°
2026-05-04 15:20 41.29171 2.09632 17 ft 18 kts 65°
2026-05-04 15:20 41.29225 2.09789 17 ft 19 kts 65°
2026-05-04 15:20 41.29280 2.09936 17 ft 16 kts 57°
2026-05-04 15:21 41.29325 2.10056 19 ft 12 kts 71°
2026-05-04 15:21 41.29305 2.10151 15 ft 13 kts 111°
2026-05-04 15:21 41.29225 2.10310 14 ft 5 kts 191°
2026-05-04 15:22 41.29209 2.10290 16 ft 0 kts 246°
2026-05-04 15:22 41.29206 2.10282 16 ft 12 kts 245°
2026-05-04 15:22 41.28724 2.08874 22 ft 148 kts 245°
2026-05-04 15:23 41.28267 2.07545 566 ft 159 kts 242°
2026-05-04 15:23 41.27516 2.06481 1283 ft 164 kts 208°
2026-05-04 15:23 41.26312 2.06256 1487 ft 189 kts 178°
2026-05-04 15:23 41.24929 2.06249 1783 ft 207 kts 183°
2026-05-04 15:24 41.21995 2.06042 2881 ft 213 kts 184°
2026-05-04 15:24 41.19014 2.05812 4208 ft 216 kts 184°
2026-05-04 15:25 41.17524 2.05557 4991 ft 217 kts 198°
2026-05-04 15:25 41.16110 2.04696 5610 ft 230 kts 208°
2026-05-04 15:25 41.14692 2.03718 6455 ft 234 kts 208°
2026-05-04 15:26 41.11755 2.01701 8306 ft 239 kts 208°
2026-05-04 15:26 41.10269 2.00688 9301 ft 241 kts 208°
2026-05-04 15:26 41.07513 1.98196 11200 ft 242 kts 232°
2026-05-04 15:27 41.06645 1.96205 11665 ft 261 kts 249°
2026-05-04 15:27 41.05622 1.91208 11932 ft 303 kts 253°
2026-05-04 15:28 41.05294 1.85282 12241 ft 341 kts 268°
2026-05-04 15:28 41.05331 1.82105 12697 ft 348 kts 268°
2026-05-04 15:28 41.05388 1.75643 13839 ft 353 kts 268°
2026-05-04 15:29 41.05411 1.72414 14353 ft 356 kts 267°
2026-05-04 15:30 41.05490 1.59130 16484 ft 364 kts 267°
2026-05-04 15:30 41.04772 1.49116 18011 ft 366 kts 251°
2026-05-04 15:31 41.03258 1.42696 18545 ft 366 kts 251°
2026-05-04 15:31 41.02500 1.39470 18779 ft 367 kts 251°
2026-05-04 15:32 41.00216 1.29754 18935 ft 367 kts 251°
2026-05-04 15:32 40.98701 1.23326 18936 ft 367 kts 251°
2026-05-04 15:33 40.97166 1.16828 19380 ft 371 kts 251°
2026-05-04 15:34 40.94835 1.07051 20746 ft 374 kts 250°
2026-05-04 15:34 40.94049 1.03763 21183 ft 375 kts 250°
2026-05-04 15:34 40.92469 0.97138 22070 ft 378 kts 250°
2026-05-04 15:35 40.90889 0.90526 22901 ft 381 kts 250°
2026-05-04 15:35 40.90082 0.87175 23312 ft 382 kts 250°
2026-05-04 15:35 40.89273 0.83831 23716 ft 382 kts 250°
2026-05-04 15:36 40.87649 0.77111 24396 ft 385 kts 250°
2026-05-04 15:36 40.87043 0.73683 24720 ft 390 kts 259°
2026-05-04 15:36 40.86892 0.70076 25012 ft 396 kts 266°
2026-05-04 15:37 40.86932 0.66414 25331 ft 398 kts 266°
2026-05-04 15:37 40.86967 0.62782 25630 ft 400 kts 266°
2026-05-04 15:37 40.86997 0.59103 25960 ft 401 kts 266°
2026-05-04 15:37 40.87023 0.55392 26275 ft 403 kts 266°
2026-05-04 15:38 40.87047 0.51684 26604 ft 405 kts 266°
2026-05-04 15:38 40.87067 0.47953 26906 ft 406 kts 266°
2026-05-04 15:38 40.87062 0.44206 27212 ft 406 kts 262°
2026-05-04 15:38 40.86555 0.40619 27489 ft 401 kts 250°
2026-05-04 15:39 40.85851 0.37027 27794 ft 404 kts 255°
2026-05-04 15:39 40.85291 0.33361 28060 ft 406 kts 255°
2026-05-04 15:39 40.84163 0.26008 28600 ft 409 kts 255°
2026-05-04 15:40 40.83601 0.22353 28852 ft 411 kts 255°
2026-05-04 15:40 40.83029 0.18641 29197 ft 410 kts 255°
2026-05-04 15:40 40.82467 0.14995 29568 ft 408 kts 255°
2026-05-04 15:40 40.81900 0.11330 29911 ft 407 kts 255°
2026-05-04 15:41 40.81329 0.07671 30207 ft 406 kts 255°
2026-05-04 15:41 40.80754 0.04016 30492 ft 405 kts 255°
2026-05-04 15:41 40.80182 0.00381 30768 ft 404 kts 255°
2026-05-04 15:41 40.79614 -0.03242 31068 ft 403 kts 255°
2026-05-04 15:42 40.79046 -0.06867 31333 ft 402 kts 255°
2026-05-04 15:42 40.78480 -0.10484 31594 ft 401 kts 255°
2026-05-04 15:42 40.77918 -0.14084 31844 ft 401 kts 255°
2026-05-04 15:42 40.77351 -0.17689 32096 ft 400 kts 255°
2026-05-04 15:43 40.76792 -0.21240 32346 ft 400 kts 255°
2026-05-04 15:43 40.76223 -0.24836 32594 ft 399 kts 255°
2026-05-04 15:43 40.75649 -0.28439 32835 ft 399 kts 255°
2026-05-04 15:43 40.75077 -0.32018 33087 ft 398 kts 255°
2026-05-04 15:44 40.74512 -0.35544 33321 ft 398 kts 255°
2026-05-04 15:44 40.73938 -0.39108 33567 ft 397 kts 255°
2026-05-04 15:44 40.73365 -0.42667 33803 ft 396 kts 255°
2026-05-04 15:44 40.72794 -0.46228 34028 ft 396 kts 255°
2026-05-04 15:45 40.72221 -0.49791 34217 ft 396 kts 255°
2026-05-04 15:45 40.71647 -0.53348 34398 ft 396 kts 255°
2026-05-04 15:45 40.71081 -0.56854 34584 ft 396 kts 255°
2026-05-04 15:45 40.70502 -0.60426 34762 ft 396 kts 255°
2026-05-04 15:46 40.69927 -0.63976 34908 ft 396 kts 255°
2026-05-04 15:46 40.68778 -0.71031 34950 ft 395 kts 255°
2026-05-04 15:47 40.67622 -0.78111 34972 ft 395 kts 255°
2026-05-04 15:47 40.66460 -0.85207 34953 ft 396 kts 255°
2026-05-04 15:48 40.65285 -0.92307 34955 ft 396 kts 255°
2026-05-04 15:48 40.63530 -1.02901 34981 ft 397 kts 255°
2026-05-04 15:49 40.62348 -1.10005 34996 ft 397 kts 255°
2026-05-04 15:49 40.61157 -1.17109 35029 ft 398 kts 255°
2026-05-04 15:50 40.59962 -1.24230 35022 ft 398 kts 255°
2026-05-04 15:50 40.58773 -1.31313 35019 ft 397 kts 255°
2026-05-04 15:51 40.57775 -1.37223 35015 ft 397 kts 255°
2026-05-04 15:51 40.56571 -1.44321 35011 ft 397 kts 255°
2026-05-04 15:52 40.55358 -1.51411 35010 ft 397 kts 255°
2026-05-04 15:52 40.54140 -1.58508 35025 ft 397 kts 255°
2026-05-04 15:53 40.52928 -1.65564 35012 ft 397 kts 255°
2026-05-04 15:53 40.51704 -1.72656 35010 ft 397 kts 255°
2026-05-04 15:54 40.50488 -1.79715 35008 ft 397 kts 255°
2026-05-04 15:54 40.49261 -1.86798 35011 ft 397 kts 255°
2026-05-04 15:55 40.48033 -1.93838 35016 ft 397 kts 255°
2026-05-04 15:55 40.46787 -2.00931 35001 ft 398 kts 255°
2026-05-04 15:56 40.45536 -2.08036 34977 ft 399 kts 255°
2026-05-04 15:56 40.44284 -2.15094 34971 ft 399 kts 255°
2026-05-04 15:57 40.43013 -2.22213 34979 ft 400 kts 255°
2026-05-04 15:57 40.41746 -2.29290 35000 ft 400 kts 255°
2026-05-04 15:58 40.40469 -2.36406 34992 ft 400 kts 255°
2026-05-04 15:58 40.39180 -2.43538 34986 ft 401 kts 255°
2026-05-04 15:59 40.37887 -2.50659 34978 ft 401 kts 255°
2026-05-04 15:59 40.36557 -2.57733 34977 ft 401 kts 253°
2026-05-04 16:00 40.35036 -2.64762 34972 ft 400 kts 252°
2026-05-04 16:00 40.33469 -2.71734 34983 ft 401 kts 253°
2026-05-04 16:01 40.31915 -2.78773 34974 ft 401 kts 253°
2026-05-04 16:01 40.30380 -2.85808 34971 ft 401 kts 253°
2026-05-04 16:02 40.28852 -2.92820 34967 ft 402 kts 253°
2026-05-04 16:03 40.26545 -3.03355 34964 ft 402 kts 253°
2026-05-04 16:03 40.24990 -3.10392 34972 ft 402 kts 253°
2026-05-04 16:04 40.23430 -3.17419 34972 ft 403 kts 253°
2026-05-04 16:04 40.21077 -3.27995 34968 ft 403 kts 253°
2026-05-04 16:05 40.19512 -3.35039 34966 ft 402 kts 253°
2026-05-04 16:06 40.17158 -3.45550 34989 ft 402 kts 253°
2026-05-04 16:07 40.14006 -3.59559 34987 ft 402 kts 253°
2026-05-04 16:08 40.10838 -3.73509 34985 ft 401 kts 253°
2026-05-04 16:09 40.06835 -3.90998 34966 ft 401 kts 253°
2026-05-04 16:10 40.03648 -4.04909 34966 ft 401 kts 253°
2026-05-04 16:11 40.00414 -4.18859 34964 ft 401 kts 253°
2026-05-04 16:12 39.95655 -4.39711 34962 ft 400 kts 255°
2026-05-04 16:13 39.92884 -4.53756 34955 ft 400 kts 255°
2026-05-04 16:14 39.90030 -4.67716 34975 ft 398 kts 255°
2026-05-04 16:16 39.86453 -4.85112 34973 ft 398 kts 255°
2026-05-04 16:17 39.82840 -5.02466 34973 ft 397 kts 255°
2026-05-04 16:18 39.79938 -5.16321 34967 ft 397 kts 255°
2026-05-04 16:19 39.76292 -5.33631 34971 ft 397 kts 255°
2026-05-04 16:20 39.72617 -5.50917 34976 ft 397 kts 256°
2026-05-04 16:22 39.68922 -5.68185 34980 ft 397 kts 255°
2026-05-04 16:23 39.64469 -5.88787 34962 ft 394 kts 256°
2026-05-04 16:25 39.59719 -6.09199 34981 ft 395 kts 248°
2026-05-04 16:26 39.51778 -6.31908 34988 ft 396 kts 248°
2026-05-04 16:28 39.46085 -6.48128 34994 ft 396 kts 248°
2026-05-04 16:29 39.38136 -6.70891 34977 ft 397 kts 248°
2026-05-04 16:30 39.34702 -6.80622 34732 ft 397 kts 248°
2026-05-04 16:31 39.32406 -6.87122 34267 ft 396 kts 249°
2026-05-04 16:31 39.28983 -6.96801 33495 ft 396 kts 249°
2026-05-04 16:32 39.25533 -7.06527 32703 ft 398 kts 248°
2026-05-04 16:33 39.23215 -7.13029 32181 ft 399 kts 248°
2026-05-04 16:33 39.20899 -7.19507 31674 ft 400 kts 248°
2026-05-04 16:34 39.18560 -7.26035 31165 ft 402 kts 248°
2026-05-04 16:34 39.17380 -7.29314 30916 ft 402 kts 248°
2026-05-04 16:35 39.13834 -7.39123 28966 ft 405 kts 248°
2026-05-04 16:35 39.09392 -7.48337 26800 ft 398 kts 241°
2026-05-04 16:36 39.07897 -7.51320 26128 ft 395 kts 241°
2026-05-04 16:36 39.04955 -7.57176 24818 ft 388 kts 240°
2026-05-04 16:37 39.02748 -7.63369 24014 ft 381 kts 251°
2026-05-04 16:37 39.01774 -7.66547 23776 ft 381 kts 251°
2026-05-04 16:37 38.99811 -7.72871 23273 ft 380 kts 251°
2026-05-04 16:38 38.98188 -7.78102 22817 ft 378 kts 251°
2026-05-04 16:39 38.95295 -7.87482 22014 ft 374 kts 251°
2026-05-04 16:39 38.93384 -7.93682 21494 ft 372 kts 251°
2026-05-04 16:40 38.91481 -7.99837 20979 ft 370 kts 251°
2026-05-04 16:40 38.89573 -8.05962 20475 ft 368 kts 250°
2026-05-04 16:41 38.87674 -8.12048 19981 ft 366 kts 250°
2026-05-04 16:41 38.84848 -8.21111 19263 ft 363 kts 250°
2026-05-04 16:42 38.82033 -8.30106 18535 ft 359 kts 250°
2026-05-04 16:43 38.80219 -8.35874 17704 ft 342 kts 250°
2026-05-04 16:43 38.78476 -8.41415 16846 ft 330 kts 251°
2026-05-04 16:43 38.77618 -8.44145 16390 ft 330 kts 251°
2026-05-04 16:44 38.74205 -8.54960 14582 ft 325 kts 251°
2026-05-04 16:45 38.72511 -8.60304 13627 ft 323 kts 251°
2026-05-04 16:46 38.70664 -8.68388 12266 ft 290 kts 258°
2026-05-04 16:46 38.69728 -8.73052 12005 ft 256 kts 258°
2026-05-04 16:47 38.68863 -8.77325 11580 ft 243 kts 258°
2026-05-04 16:47 38.68014 -8.81478 10926 ft 242 kts 258°
2026-05-04 16:48 38.66734 -8.87708 9840 ft 244 kts 258°
2026-05-04 16:48 38.66286 -8.89883 9010 ft 261 kts 257°
2026-05-04 16:49 38.65340 -8.94450 7945 ft 267 kts 257°
2026-05-04 16:49 38.64376 -8.99110 6931 ft 274 kts 257°
2026-05-04 16:50 38.63417 -9.03695 5905 ft 263 kts 257°
2026-05-04 16:50 38.62486 -9.08142 4917 ft 259 kts 257°
2026-05-04 16:51 38.61604 -9.12327 4523 ft 225 kts 259°
2026-05-04 16:51 38.61209 -9.14194 4414 ft 211 kts 258°
2026-05-04 16:51 38.60470 -9.17722 4234 ft 202 kts 259°
2026-05-04 16:52 38.60621 -9.21068 3967 ft 194 kts 310°
2026-05-04 16:52 38.61767 -9.21943 3524 ft 198 kts 349°
2026-05-04 16:53 38.64337 -9.20967 2971 ft 187 kts 18°
2026-05-04 16:53 38.67414 -9.19312 2338 ft 140 kts 16°
2026-05-04 16:54 38.68304 -9.18839 2146 ft 136 kts 15°
2026-05-04 16:55 38.71783 -9.16986 1424 ft 136 kts 17°
2026-05-04 16:55 38.73536 -9.16048 1083 ft 138 kts 14°
2026-05-04 16:56 38.75284 -9.15108 700 ft 135 kts 19°
2026-05-04 16:56 38.77675 -9.13838 366 ft 83 kts 22°
2026-05-04 16:57 38.78079 -9.13625 366 ft 47 kts 24°
2026-05-04 16:57 38.78366 -9.13356 363 ft 12 kts 52°
2026-05-04 16:58 38.78145 -9.13354 358 ft 16 kts 204°
2026-05-04 16:58 38.78041 -9.13410 362 ft 15 kts 198°
2026-05-04 16:59 38.77782 -9.13352 353 ft 21 kts 169°
2026-05-04 17:00 38.77314 -9.13254 335 ft 11 kts 172°
2026-05-04 17:00 38.77116 -9.13203 338 ft 10 kts 169°
2026-05-04 17:01 38.76964 -9.13161 339 ft 10 kts 168°
2026-05-04 17:01 38.76955 -9.13158 336 ft 0 kts 169°
2026-05-04 17:02 38.76924 -9.13145 336 ft 2 kts 133°
2026-05-04 17:02 38.76934 -9.13083 333 ft 2 kts 78°
2026-05-04 17:03 38.76935 -9.13077 334 ft 0 kts 78°
2026-05-04 17:03 38.76936 -9.13071 335 ft 1 kts 78°
2026-05-04 17:03 38.76937 -9.13070 335 ft 0 kts 78°